Location: Sternwarte ZA, Rosenfeld-Brittheim
(48.2889°N, 8.6789°E)
Time: 06:01:35
(UTC+02:00)

ISS - Pass Details

Date: 25 September 2020
Orbit: 419 x 420 km, 51.6° (Epoch: 21 September)

Event Time Altitude Azimuth Distance (km) Brightness Sun altitude
Rises 20:55:46 0° 277° (W) 2,368 1.7 -17.2°
Reaches altitude 10° 20:57:55 10° 284° (WNW) 1,504 0.4 -17.5°
Maximum altitude 21:01:11 45° 358° (N) 585 -2.9 -18.0°
Enters shadow 21:02:05 35° 43° (NE) 700 -2.9 -18.2°
